User: anonymous   Login
Location: Veyrier
(46.1830°N, 6.2000°E)
Time: 02:08:47
(UTC+01:00)
Language:

Iridium 98 - Orbit

View from above orbital plane
View from above orbital plane
View from above satellite
View from above satellite

Ground track
Ground track

The orbit data is extracted from the following two-line orbital elements,

1 27451U 02031B   17321.52490815 -.00000012  00000-0 -11417-4 0  9996
2 27451  86.3922 318.0769 0002038  99.9015 260.2411 14.34216995813283
Epoch (UTC): 17 November 2017 12:35:52
Eccentricity: 0.0002038
inclination: 86.3922°
perigee height: 776 km
apogee height: 779 km
right ascension of ascending node: 318.0769°
argument of perigee: 99.9015°
revolutions per day: 14.34216995
mean anomaly at epoch: 260.2411°
orbit number at epoch: 81328

The dashed part of the orbit path shows where the satellite is in the earth's shadow,  

DLR